Chetumal, Mexico

1:03 PM on June 28, 2017 (GMT +0000)
Chetumal International

Weather History for MMCM - February, 2013

Change the Weather History Date:

Saturday, February 16, 2013

  Actual Average Record
Temperature  
Mean Temperature 80 °F -  
Max Temperature 90 °F 83 °F 93 °F (2017)
Min Temperature 67 °F 71 °F 60 °F (2015)
Cooling Degree Days 14    
Growing Degree Days 30 (Base 50)    
Moisture  
Dew Point 66 °F    
Average Humidity 66    
Maximum Humidity 93    
Minimum Humidity 26    
Precipitation  
Precipitation 0.00 in - - ()
Sea Level Pressure  
Sea Level Pressure 30.06 in    
Wind  
Wind Speed 8 mph ()    
Max Wind Speed 21 mph    
Max Gust Speed -    
Visibility 6.5 miles    
Events Rain    
Averages and records for this station are not official NWS values.
T = Trace of Precipitation, MM = Missing Value Source: Averaged Metar Reports

Daily Weather History Graph

Daily Weather History Graph

Search for Another Location

Airport or City:

Trip Planner

Search our weather history database for the weather conditions in past years. The results will help you decide how hot, cold, wet, or windy it might be!

Date:

Astronomy

Feb. 16, 2013 Rise Set
Actual Time 6:20 AM CST 5:54 PM CST
Civil Twilight 5:57 AM CST 6:16 PM CST
Nautical Twilight 5:32 AM CST 6:42 PM CST
Astronomical Twilight 5:06 AM CST 7:08 PM CST
Moon 10:34 AM CST (2/16) 11:46 PM CST (2/16)
Length of Visible Light 12h 18m
Length of Day
11h 34m
Waxing Crescent, 39% of the Moon is Illuminated
Feb 16
Waxing Crescent
Feb 17
First Quarter
Feb 25
Full
Mar 4
Last Quarter
Mar 11
New

Hourly Weather History & Observations

Time (CST) Temp. Heat Index Dew Point Humidity Pressure Visibility Wind Dir Wind Speed Gust Speed Precip Events Conditions
2:50 AM 74 °F - 72 °F 93% 29.94 in 5 mi North 4.5 mph - - Rain Light Drizzle
5:50 AM 72 °F - 70 °F 91% 29.99 in 5 mi North 4.5 mph - -   Clear
7:40 AM 71.6 °F - 57.2 °F 60% 30.02 in 7.0 mi NNW 6.9 mph - N/A   Mostly Cloudy
8:40 AM 71.6 °F - 57.2 °F 60% 30.06 in 7.0 mi NNW 11.5 mph - N/A   Mostly Cloudy
8:50 AM 74 °F - 69 °F 78% 30.06 in 6 mi North 4.5 mph - -   Partly Cloudy
9:40 AM 75.2 °F - 64.4 °F 69% 30.07 in 7.0 mi North 20.7 mph - N/A   Mostly Cloudy
10:40 AM 77.0 °F - 66.2 °F 69% 30.06 in 7.0 mi North 13.8 mph - N/A   Scattered Clouds
11:40 AM 78.8 °F - 68.0 °F 69% 30.07 in 7.0 mi North 17.3 mph - N/A   Scattered Clouds
11:50 AM 86 °F - 66 °F 42% 30.06 in 6 mi North 6.7 mph - -   Partly Cloudy
12:43 PM 82.4 °F 87.2 °F 71.6 °F 70% 30.03 in 7.0 mi NNW 8.1 mph - N/A   Scattered Clouds
1:40 PM 82.4 °F 87.2 °F 71.6 °F 70% 30.01 in 7.0 mi North 13.8 mph - N/A   Scattered Clouds
2:40 PM 84.2 °F 89.6 °F 71.6 °F 66% 30.00 in 7.0 mi North 11.5 mph - N/A   Scattered Clouds
2:50 PM 90 °F - 60 °F 26% 30.00 in 6 mi North 6.7 mph - -   Partly Cloudy
3:40 PM 84.2 °F 89.6 °F 71.6 °F 66% 29.99 in 7.0 mi North 11.5 mph - N/A   Scattered Clouds
4:40 PM 84.2 °F 89.6 °F 71.6 °F 66% 30.01 in 7.0 mi North 11.5 mph - N/A   Mostly Cloudy
5:40 PM 82.4 °F 87.2 °F 71.6 °F 70% 30.04 in 7.0 mi North 13.8 mph - N/A   Mostly Cloudy
5:50 PM 82 °F - 59 °F 36% 30.04 in 6 mi North 4.5 mph - -   Partly Cloudy
6:45 PM 78.8 °F - 68.0 °F 69% 30.07 in 7.0 mi Calm Calm - N/A   Mostly Cloudy
7:42 PM 75.2 °F - 64.4 °F 69% 30.11 in 7.0 mi North 17.3 mph - N/A   Mostly Cloudy
8:44 PM 73.4 °F - 64.4 °F 73% 30.14 in 7.0 mi North 17.3 mph - N/A   Clear
8:45 PM 73 °F - 59 °F 52% 30.15 in 5 mi North 4.5 mph - -   Scattered Clouds
9:40 PM 71.6 °F - 62.6 °F 73% 30.16 in 7.0 mi North 17.3 mph - N/A   Clear
10:42 PM 69.8 °F - 60.8 °F 73% 30.17 in 7.0 mi North 17.3 mph - N/A   Clear
11:45 PM 67 °F - 57 °F 63% 30.19 in 5 mi North 4.5 mph - -   Scattered Clouds